Hourly Data Report for October 05, 2019

All times are specified in Local Standard Time (LST). Add 1 hour to adjust for Daylight Saving Time where and when it is observed.

ABBOTSFORD A
BRITISH COLUMBIA
Current Station Operator: NAVCAN

49°01'31.000" N
122°21'36.000" W
59.10 m
1100031
71108
YXX

Download Data

Hourly Data (October 2019)
Hourly Data Report for October 5, 2019
TIME Temp Definition
°C
Dew Point Definition
°C
Rel Hum Definition
%
Wind Dir Definition
10's deg

Wind Spd Definition
km/h
Visibility Definition
km
Stn Press Definition
kPa
Hmdx Definition


Wind Chill Definition


Weather Definition


00:00 9.5 8.8 95 21 8 16.1 101.78     LegendNANA
01:00 9.3 8.6 95 20 10 24.1 101.81     Mostly Cloudy
02:00 9.2 8.7 97 22 8 24.1 101.84     LegendNANA
03:00 9.0 8.3 95 23 8 24.1 101.88     LegendNANA
04:00 8.0 7.5 97 19 5 24.1 101.88     Mostly Cloudy
05:00 8.3 8.0 98 29 5 24.1 101.92     LegendNANA
06:00 9.1 8.5 96 24 9 32.2 101.97     LegendNANA
07:00 9.4 8.8 96 36 6 32.2 102.01     Mostly Cloudy
08:00 10.4 9.3 93 25 7 32.2 102.05     LegendNANA
09:00 11.2 9.0 86 24 4 32.2 102.11     LegendNANA
10:00 11.9 9.2 83 25 9 32.2 102.16     Mostly Cloudy
11:00 12.5 9.5 82 21 12 24.1 102.18     LegendNANA
12:00 13.4 9.6 78 24 16 32.2 102.17     LegendNANA
13:00 14.0 9.4 73 22 13 16.1 102.14     Mostly Cloudy
14:00 15.0 9.3 69 20 14 24.1 102.14     LegendNANA
15:00 14.9 9.0 68 20 14 32.2 102.16     LegendNANA
16:00 14.5 8.6 67 21 16 24.1 102.18     Mostly Cloudy
17:00 12.9 8.6 75 22 8 40.2 102.15     LegendNANA
18:00 11.4 7.9 78 24 6 40.2 102.17     LegendNANA
19:00 10.0 7.7 85 36 2 24.1 102.23     Mainly Clear
20:00 8.4 6.6 88 19 3 24.1 102.25     LegendNANA
21:00 7.5 6.5 94 36 3 16.1 102.29     LegendNANA
22:00 7.2 6.7 96 36 2 16.1 102.32     Clear
23:00 6.5 5.9 96 36 1 12.9 102.32     LegendNANA

Notes on Data Quality.

Legend

  • E = Estimated
  • M = Missing
  • NA = Not Available
Date modified: